Stations météo

réclame
Mon MeteoGroup
Arkona, Allemagne (10091): Température de l'air & dewpoint: 13.03.2019 03:00:00 - 19.03.2019 03:00:00 (CET)Arkona, Allemagne (10091): Température de l'air 5cm & Température de l'air -5cm: 13.03.2019 03:00:00 - 19.03.2019 03:00:00 (CET)Arkona, Allemagne (10091): Température de l'air -20cm & Température de l'air -100cm: 13.03.2019 03:00:00 - 19.03.2019 03:00:00 (CET)Arkona, Allemagne (10091): water temperature: 13.03.2019 03:00:00 - 19.03.2019 03:00:00 (CET)Arkona, Allemagne (10091): Vitesse du vent & gusts: 13.03.2019 03:00:00 - 19.03.2019 03:00:00 (CET)Arkona, Allemagne (10091): Direction du vent: 13.03.2019 03:00:00 - 19.03.2019 03:00:00 (CET)Arkona, Allemagne (10091): reduced air pressure: 13.03.2019 03:00:00 - 19.03.2019 03:00:00 (CET)Arkona, Allemagne (10091): visibility: 13.03.2019 03:00:00 - 19.03.2019 03:00:00 (CET)Arkona, Allemagne (10091): Ensoleillement: 13.03.2019 03:00:00 - 19.03.2019 03:00:00 (CET)Arkona, Allemagne (10091): Quantités de précipitations: 13.03.2019 03:00:00 - 19.03.2019 03:00:00 (CET)
Date & Time tt [°C] td [°C] tt 5cm [°C] tt -5cm [°C] tt -20cm [°C] tt -100cm [°C] tw [°C] ff [km/h] ff [knt] fx [km/h] fx [knt] dd ppp [hPa] vv [km] sd [min] rr [mm]
19.03.2019 03:00:00 3,5 2,0 2,0 2,2 4,4 6,1 4,0 19 11 29 16 W 1016,6 26 0 0,0
19.03.2019 02:00:00 3,9 1,4 2,2 2,6 4,6 6,1 4,0 22 12 35 19 WNW 1015,8 40 0 0,0
19.03.2019 01:00:00 4,1 2,6 2,8 3,0 4,7 6,1 4,0 23 13 38 21 W 1015,0 21 0 0,0
19.03.2019 00:00:00 4,6 2,4 4,0 3,5 4,7 6,1 4,0 29 16 41 22 W 1014,3 30 0 0,0
18.03.2019 23:00:00 4,8 1,3 4,0 3,3 4,8 6,1 4,0 31 17 40 22 W 1013,3 44 0 0,0
18.03.2019 22:00:00 4,8 1,2 4,1 3,2 5,0 6,1 4,0 30 16 41 22 W 1012,1 54 0 0,0
18.03.2019 21:00:00 4,3 2,1 3,0 3,3 5,2 6,1 4,0 29 16 39 21 W 1011,2 48 0 0,0
18.03.2019 20:00:00 2,9 1,2 2,1 3,3 5,4 6,1 4,0 25 13 30 16 WSW 1010,4 75 0 0,0
18.03.2019 19:00:00 2,6 1,4 1,4 3,9 5,5 6,1 4,0 14 7 48 26 W 1009,1 54 0 0,3
18.03.2019 18:00:00 3,9 2,0 3,6 4,9 5,6 6,1 4,1 13 7 50 27 NNW 1008,0 49 0 0,1
18.03.2019 17:00:00 4,7 2,4 3,7 5,4 5,7 6,1 4,0 33 18 51 28 W 1006,4 19 0 0,1
18.03.2019 16:00:00 5,2 2,0 5,4 5,8 5,7 6,1 4,1 45 24 58 32 W 1005,0 40 0 0,0
18.03.2019 15:00:00 5,1 2,5 5,2 6,1 5,7 6,1 4,0 43 23 59 32 W 1004,2 29 0 0,4
18.03.2019 14:00:00 3,7 2,5 3,4 6,5 5,5 6,1 4,0 54 29 74 40 W 1003,4 8 32 0,3
18.03.2019 13:00:00 5,9 3,2 6,0 6,5 5,3 6,1 4,0 54 29 74 40 WSW 1002,2 22 13 0,2
18.03.2019 12:00:00 5,1 2,7 6,7 6,2 5,1 6,1 4,0 56 30 86 46 WSW 1001,5 30 6 0,4
18.03.2019 11:00:00 5,5 3,3 5,2 6,3 4,9 6,1 4,0 58 32 84 45 WSW 1000,3 16 15 0,1
18.03.2019 10:00:00 5,6 2,4 6,2 5,8 4,7 6,1 4,0 68 37 90 48 WSW 999,7 17 28 0,0
18.03.2019 09:00:00 5,1 2,0 5,1 4,6 4,6 6,1 4,0 59 32 79 43 WSW 999,1 31 2 0,0
18.03.2019 08:00:00 5,2 2,1 5,4 4,2 4,6 6,1 4,0 55 30 84 45 WSW 998,9 37 10 0,0
18.03.2019 07:00:00 4,4 1,7 3,6 3,4 4,6 6,1 4,0 56 30 77 42 WSW 998,4 40 0 0,0
18.03.2019 06:00:00 4,8 1,5 4,4 3,5 4,7 6,1 4,0 50 27 77 42 WSW 998,3 41 0 0,0
18.03.2019 05:00:00 4,6 1,5 4,1 3,3 4,7 6,1 4,0 52 28 74 40 WSW 998,2 43 0 0,0
18.03.2019 04:00:00 4,4 1,2 4,0 3,3 4,8 6,1 4,0 50 27 72 39 SW 998,3 45 0 0,0
18.03.2019 03:00:00 4,0 1,2 2,9 3,4 4,9 6,1 4,0 53 29 73 40 WSW 998,2 41 0 0,0
18.03.2019 02:00:00 4,3 0,8 3,9 3,1 5,0 6,1 4,0 52 28 66 36 SW 998,4 41 0 0,0
18.03.2019 01:00:00 3,9 0,6 3,1 2,7 5,2 6,1 4,0 46 25 70 38 SW 998,3 42 0 0,0
18.03.2019 00:00:00 4,5 0,5 3,2 2,9 5,4 6,1 4,0 47 25 76 41 SW 998,5 43 0 0,0
17.03.2019 23:00:00 4,7 1,0 3,4 3,2 5,7 6,1 4,0 49 26 69 37 WSW 998,4 35 0 0,0
17.03.2019 22:00:00 4,7 1,4 3,4 3,5 6,0 6,0 4,0 44 24 73 39 SW 998,4 39 0 0,0
17.03.2019 21:00:00 4,8 1,4 3,6 3,9 6,2 6,0 4,0 41 22 61 33 WSW 998,5 43 0 0,0
17.03.2019 20:00:00 5,2 1,0 3,7 4,4 6,5 6,0 4,0 44 24 60 33 WSW 997,9 41 0 0,0
17.03.2019 19:00:00 5,6 1,9 4,0 5,2 6,8 6,0 4,0 39 21 56 30 WSW 997,5 47 7 0,0
17.03.2019 18:00:00 6,3 2,2 5,3 6,5 6,9 6,0 4,1 36 20 53 28 WSW 996,8 45 29 0,0
17.03.2019 17:00:00 7,6 2,3 7,5 8,2 6,8 6,0 4,1 37 20 60 33 WSW 996,4 40 60 0,0
17.03.2019 16:00:00 8,3 3,5 9,7 9,1 6,5 6,0 4,1 39 21 61 33 WSW 995,8 36 57 0,0
17.03.2019 15:00:00 7,8 3,8 9,8 7,9 6,4 6,0 4,1 39 21 56 30 WSW 995,3 45 11 0,0
17.03.2019 14:00:00 6,3 3,5 6,7 7,3 6,4 6,0 4,1 40 22 58 32 WSW 994,9 40 0 0,0
17.03.2019 13:00:00 6,3 4,4 7,0 7,1 6,3 6,0 4,0 41 22 54 29 WSW 994,1 35 0 0,0
17.03.2019 12:00:00 5,8 4,4 5,7 6,9 6,3 6,0 4,0 41 22 60 32 WSW 993,5 23 0 0,1
17.03.2019 11:00:00 5,8 4,1 5,3 7,5 6,2 6,0 4,0 42 23 61 33 W 992,7 29 0 0,1
17.03.2019 10:00:00 10,1 6,0 10,7 8,0 6,0 6,0 4,0 46 25 62 34 SW 991,8 57 8 0,0
17.03.2019 09:00:00 8,8 5,1 8,7 6,9 5,9 6,0 4,0 42 23 55 30 SSW 991,8 67 4 0,0
17.03.2019 08:00:00 8,7 5,2 8,5 6,5 5,8 6,0 4,0 43 23 59 32 SSW 991,7 41 0 0,0
17.03.2019 07:00:00 8,1 5,0 7,7 6,2 5,8 6,0 4,0 46 25 59 32 SSW 992,1 44 0 0,0
17.03.2019 06:00:00 8,3 5,2 7,8 6,2 5,8 6,0 4,0 43 23 60 32 SSW 992,3 44 0 0,0
17.03.2019 05:00:00 8,1 5,4 7,7 6,1 5,7 6,0 4,0 39 21 53 29 SSW 992,8 37 0 0,0
17.03.2019 04:00:00 7,9 5,6 7,5 6,1 5,7 6,0 4,0 40 22 52 28 SSW 993,3 33 0 0,0
17.03.2019 03:00:00 7,7 5,7 7,3 6,0 5,6 6,0 4,0 38 21 49 26 SSW 994,1 35 0 0,0
17.03.2019 02:00:00 7,6 6,2 7,2 6,0 5,6 6,0 4,0 37 20 45 24 SW 994,6 27 0 0,0
17.03.2019 01:00:00 7,3 6,8 6,9 5,9 5,5 6,0 4,0 34 18 46 25 SW 995,3 11 0 0,1
17.03.2019 00:00:00 6,9 6,8 6,6 5,6 5,5 6,0 4,0 35 19 44 24 SW 996,1 4,0 0 0,3
16.03.2019 23:00:00 6,2 6,0 5,9 5,2 5,5 6,0 4,0 35 19 45 24 SSW 996,8 7 0 1,1
16.03.2019 22:00:00 5,1 4,9 4,9 4,8 5,6 6,0 4,0 34 19 46 25 SSW 997,2 11 0 1,2
16.03.2019 21:00:00 4,3 4,0 4,1 4,7 5,8 6,0 3,9 32 17 45 24 S 997,9 9 0 1,1
16.03.2019 20:00:00 3,8 3,2 3,6 4,8 5,9 6,0 3,9 31 17 41 22 S 999,0 9 0 0,9
16.03.2019 19:00:00 3,9 2,9 3,5 5,1 6,1 6,0 3,9 33 18 42 23 S 1000,1 10 0 0,5
16.03.2019 18:00:00 4,0 2,7 3,6 5,8 6,2 6,0 4,0 23 12 40 21 SSW 1001,0 13 0 0,5
16.03.2019 17:00:00 5,0 2,7 4,4 6,6 6,2 6,0 4,0 30 16 39 21 SW 1001,5 22 0 0,1
16.03.2019 16:00:00 6,7 2,6 6,7 7,4 6,1 6,0 4,0 23 13 45 24 WSW 1001,7 28 0 0,0
16.03.2019 15:00:00 6,9 3,3 7,5 7,7 6,0 6,0 4,0 41 22 56 30 WSW 1001,9 20 0 0,0
16.03.2019 14:00:00 6,8 3,4 7,4 7,9 5,8 6,0 4,0 46 25 62 33 WSW 1002,0 21 49 0,0
16.03.2019 13:00:00 6,2 3,5 7,2 7,6 5,5 6,0 4,0 46 25 65 35 WSW 1002,0 18 59 0,0
16.03.2019 12:00:00 6,5 3,8 7,5 7,2 5,3 6,0 4,0 46 25 64 35 W 1002,0 19 58 0,0
16.03.2019 11:00:00 6,6 3,5 7,6 6,6 5,0 6,0 4,0 52 28 65 35 W 1002,0 18 60 0,0
16.03.2019 10:00:00 6,1 3,5 6,9 5,5 4,9 6,0 3,9 49 26 62 34 W 1001,4 20 26 0,0
16.03.2019 09:00:00 5,4 3,1 5,6 4,8 4,9 5,9 3,9 48 26 61 33 W 1001,0 20 0 0,0
16.03.2019 08:00:00 4,9 3,0 4,9 4,3 4,9 5,9 3,9 44 24 59 32 W 1000,3 21 0 0,0
16.03.2019 07:00:00 4,7 2,7 4,3 4,0 4,9 5,9 3,9 44 24 55 30 W 999,5 22 0 0,0
16.03.2019 06:00:00 4,7 2,5 3,9 3,9 5,0 5,9 3,9 46 25 57 31 W 998,4 24 0 0,0
16.03.2019 05:00:00 4,9 2,4 4,6 4,2 5,1 5,9 3,9 47 25 69 37 W 997,7 27 0 0,0
16.03.2019 04:00:00 5,1 2,2 4,8 4,2 5,1 5,9 4,0 52 28 74 40 W 996,3 25 0 0,0
16.03.2019 03:00:00 5,2 2,4 4,7 4,2 5,2 5,9 3,9 53 29 75 41 W 994,9 23 0 0,0
16.03.2019 02:00:00 4,9 3,1 4,0 4,4 5,3 5,9 3,9 51 27 72 39 W 993,9 9 0 0,6
16.03.2019 01:00:00 4,4 3,7 4,0 4,4 5,3 5,9 3,9 34 19 56 30 WNW 992,6 14 0 0,5
16.03.2019 00:00:00 3,8 3,4 3,6 4,4 5,5 5,9 3,9 33 18 59 32 WNW 991,2 4,9 0 1,1
15.03.2019 23:00:00 4,2 3,0 3,6 4,5 5,6 5,9 3,9 45 25 92 50 WNW 989,3 14 0 0,2
15.03.2019 22:00:00 4,8 2,8 4,2 4,8 5,7 5,9 3,9 74 40 101 55 W 986,7 24 0 0,4
15.03.2019 21:00:00 5,3 3,4 4,4 5,0 5,8 5,9 3,9 80 43 109 59 W 984,8 5 0 0,2
15.03.2019 20:00:00 5,8 2,7 5,5 5,0 5,9 5,9 4,0 74 40 98 53 WSW 984,9 25 0 0,0
15.03.2019 19:00:00 6,2 2,9 5,7 5,3 6,1 5,9 4,0 74 40 96 52 WSW 985,4 22 0 0,0
15.03.2019 18:00:00 6,4 4,1 5,7 6,0 6,1 5,9 4,0 56 30 83 45 WSW 985,7 24 33 0,0
15.03.2019 17:00:00 6,8 5,8 6,5 6,3 6,2 5,9 4,0 55 30 69 37 SW 986,4 46 0 1,1
15.03.2019 16:00:00 5,6 4,9 5,4 6,7 6,1 5,9 4,0 36 20 57 31 SSW 988,3 3,4 0 1,9
15.03.2019 15:00:00 7,0 4,2 6,4 7,6 6,0 5,9 4,0 33 18 51 28 SSW 990,6 29 0 0,1
15.03.2019 14:00:00 7,6 4,2 8,0 8,5 5,7 5,9 4,0 29 16 47 26 SSW 992,3 35 8 0,0
15.03.2019 13:00:00 7,8 4,8 9,5 7,9 5,4 5,9 4,0 30 16 44 24 SW 993,9 20 1 0,0
15.03.2019 12:00:00 6,0 4,2 7,1 6,6 5,3 5,9 4,0 39 21 51 28 WSW 995,2 31 0 0,0
15.03.2019 11:00:00 5,5 3,9 6,1 5,9 5,2 5,9 3,9 37 20 48 26 WSW 995,6 36 0 0,0
15.03.2019 10:00:00 4,9 2,5 5,1 5,5 5,1 5,9 3,9 37 20 56 30 W 995,6 52 33 0,0
15.03.2019 09:00:00 4,7 3,0 4,4 4,9 5,1 5,9 3,9 42 23 55 30 W 995,2 44 3 0,0
15.03.2019 08:00:00 4,4 3,9 4,3 4,7 5,1 5,9 3,9 42 23 53 29 W 994,9 10 0 0,0
15.03.2019 07:00:00 4,8 4,2 4,7 4,6 5,1 5,9 3,9 42 23 53 29 W 994,2 31 0 0,0
15.03.2019 06:00:00 4,7 3,9 4,6 4,6 5,2 5,9 3,9 39 21 49 26 W 993,5 32 0 0,0
15.03.2019 05:00:00 4,7 4,0 4,5 4,6 5,2 5,8 3,9 37 20 48 26 W 992,6 32 0 0,0
15.03.2019 04:00:00 4,9 4,0 4,5 4,7 5,3 5,8 3,9 38 20 48 26 W 991,8 36 0 0,0
15.03.2019 03:00:00 5,0 4,2 4,8 4,8 5,3 5,8 3,9 38 21 54 29 WSW 991,2 21 0 0,1
15.03.2019 02:00:00 5,0 4,5 4,7 4,8 5,3 5,8 3,9 34 18 44 24 WSW 990,9 13 0 0,6
15.03.2019 01:00:00 4,6 4,4 4,5 4,7 5,4 5,8 3,9 22 12 31 17 WSW 990,7 7 0 0,3
15.03.2019 00:00:00 4,2 3,8 4,0 4,7 5,5 5,8 3,9 20 11 26 14 SSW 990,6 7 0 0,1
14.03.2019 23:00:00 4,4 3,9 4,1 4,7 5,6 5,8 3,9 19 10 31 17 SSW 990,4 16 0 0,1
14.03.2019 22:00:00 4,5 4,0 4,1 4,8 5,7 5,8 3,9 21 11 26 14 SSW 990,0 12 0 0,0
14.03.2019 21:00:00 4,5 3,9 4,2 4,8 5,9 5,8 3,9 19 10 29 16 SSW 989,7 29 0 0,0
14.03.2019 20:00:00 4,5 3,7 3,8 5,0 6,0 5,8 3,9 23 13 33 18 SSW 989,6 23 0 0,1
14.03.2019 19:00:00 4,7 3,7 4,2 5,6 6,2 5,8 4,0 29 16 45 25 SSW 989,6 21 0 0,0
14.03.2019 18:00:00 5,1 3,9 4,5 6,2 6,3 5,8 4,0 33 18 45 24 SSW 989,6 26 0 0,0
14.03.2019 17:00:00 5,4 4,0 5,0 6,8 6,3 5,8 4,0 39 21 55 30 SSW 989,9 22 0 0,1
14.03.2019 16:00:00 5,8 4,4 5,5 7,5 6,3 5,8 4,0 36 20 47 26 SSW 990,6 15 0 0,1
14.03.2019 15:00:00 6,0 4,2 5,7 8,3 6,1 5,8 4,0 35 19 45 25 SSW 991,7 12 0 0,1
14.03.2019 14:00:00 6,7 5,3 7,2 8,8 5,8 5,8 4,0 36 19 64 35 SW 992,8 22 17 0,2
14.03.2019 13:00:00 6,7 4,6 7,3 9,1 5,4 5,8 3,9 31 17 56 31 SW 993,8 30 26 0,0
14.03.2019 12:00:00 6,3 4,8 6,8 7,7 5,1 5,8 3,9 38 21 60 33 SW 994,7 16 1 0,3
14.03.2019 11:00:00 6,9 3,8 7,8 7,8 4,9 5,8 3,9 40 21 55 30 WSW 995,3 32 22 0,0
14.03.2019 10:00:00 5,6 4,3 5,8 5,8 4,7 5,8 3,9 36 19 54 29 WSW 996,1 13 8 0,0
14.03.2019 09:00:00 5,0 3,7 5,0 4,8 4,6 5,8 3,9 35 19 54 29 WSW 996,6 18 14 0,0
14.03.2019 08:00:00 4,8 3,0 4,4 4,0 4,7 5,8 3,9 44 24 56 30 W 996,4 19 3 0,0
14.03.2019 07:00:00 4,5 2,1 4,2 3,7 4,8 5,8 3,9 48 26 62 34 W 996,0 22 0 0,0
14.03.2019 06:00:00 4,5 2,1 4,1 4,1 4,8 5,8 3,9 45 24 63 34 W 995,7 36 0 0,0
14.03.2019 05:00:00 4,7 2,9 4,2 4,4 4,9 5,8 3,9 49 26 63 34 W 994,8 42 0 0,0
14.03.2019 04:00:00 4,8 3,8 4,4 4,5 4,9 5,8 3,9 52 28 63 34 W 993,9 29 0 0,0
14.03.2019 03:00:00 4,8 4,1 4,4 4,6 4,9 5,8 3,9 44 24 55 30 W 992,9 17 0 0,1
14.03.2019 02:00:00 4,9 4,5 4,6 4,7 5,0 5,8 3,9 36 20 52 28 WSW 992,3 12 0 0,2
14.03.2019 01:00:00 4,8 4,5 4,5 4,6 5,0 5,8 3,9 35 19 52 28 WSW 991,8 6 0 0,6
14.03.2019 00:00:00 4,4 4,0 4,1 4,5 5,0 5,8 3,9 26 14 61 33 SW 992,1 4,7 0 1,2
13.03.2019 23:00:00 5,4 3,6 4,7 4,7 5,1 5,8 3,9 33 18 54 29 SSW 992,2 23 0 0,0
13.03.2019 22:00:00 5,4 3,6 4,7 4,7 5,2 5,8 3,9 41 22 57 31 SSW 992,6 13 0 0,0
13.03.2019 21:00:00 5,4 3,2 4,9 4,6 5,3 5,8 3,9 46 25 64 35 SSW 993,0 56 0 0,0
13.03.2019 20:00:00 6,2 2,8 5,4 5,0 5,4 5,8 3,9 50 27 71 38 SSW 993,3 50 0 0,2
13.03.2019 19:00:00 6,7 2,5 6,1 5,2 5,4 5,8 3,9 50 27 66 36 SSW 993,8 57 0 0,0
13.03.2019 18:00:00 6,7 2,9 6,1 5,6 5,5 5,8 3,9 50 27 66 35 SSW 993,9 49 0 0,1
13.03.2019 17:00:00 6,6 3,2 5,6 6,0 5,5 5,8 3,9 44 24 68 37 SSW 994,4 26 0 0,3
13.03.2019 16:00:00 7,4 2,1 7,2 6,7 5,4 5,8 3,9 51 28 74 40 SSW 994,7 49 1 0,0
13.03.2019 15:00:00 7,8 2,4 8,2 7,3 5,2 5,8 3,9 52 28 70 38 SSW 994,9 46 2 0,0
13.03.2019 14:00:00 8,4 1,8 9,0 7,4 5,0 5,8 3,9 56 31 73 40 SW 995,3 53 10 0,0
13.03.2019 13:00:00 7,6 2,0 7,7 7,2 4,7 5,8 3,9 50 27 69 37 SW 995,9 43 35 0,0
13.03.2019 12:00:00 6,9 2,2 7,5 6,0 4,5 5,8 3,9 46 25 63 34 SSW 996,2 39 0 0,0
13.03.2019 11:00:00 6,5 2,1 7,0 6,1 4,2 5,8 3,8 48 26 63 34 SW 996,3 40 20 0,0
13.03.2019 10:00:00 5,9 2,0 6,2 5,0 4,1 5,8 3,8 46 25 62 33 SW 996,7 45 10 0,0
13.03.2019 09:00:00 4,9 1,5 5,2 4,0 4,1 5,8 3,8 42 23 58 31 SW 996,9 55 35 0,0
13.03.2019 08:00:00 4,5 1,8 3,9 3,2 4,1 5,8 3,8 39 21 53 29 SW 996,6 41 55 0,0
13.03.2019 07:00:00 3,8 2,1 2,5 3,2 4,2 5,8 3,8 41 22 57 31 WSW 996,3 35 0 0,0
13.03.2019 06:00:00 4,3 2,8 3,6 3,6 4,2 5,8 3,8 38 20 52 28 WSW 996,0 42 0 0,1
13.03.2019 05:00:00 4,2 3,1 3,6 3,7 4,2 5,8 3,8 48 26 67 36 SW 995,1 10 0 0,4
13.03.2019 04:00:00 4,2 2,6 3,4 3,7 4,3 5,8 3,8 41 22 62 34 SSW 994,6 20 0 1,1
13.03.2019 03:00:00 4,3 2,3 3,4 3,7 4,3 5,9 3,8 47 25 62 33 SSW 995,2 13 0 0,6

tt = Température de l'air
td = dewpoint
tt 5cm = Température de l'air 5cm
tt -5cm = Température de l'air -5cm
tt -20cm = Température de l'air -20cm
tt -100cm = Température de l'air -100cm
tw = water temperature
ff = Vitesse du vent
fx = gusts
dd = Direction du vent
ppp = reduced air pressure
vv = visibility
sd = Ensoleillement
rr = Quantités de précipitations

stations d'obs. à proximité